This is the latest recevied weather packets stored in our database for station/object WS2Z. If no packets are shown the sender has not sent any weather packets the latest 10 day(s).
| Time | Temp. | Humidity | Pressure | Rain* | Wind** | Luminosity | Snow |
|---|---|---|---|---|---|---|---|
| 1777647192 | 28.33° C | 64% | 1013.9 hPa | 0 mm | - | 218 W/m² | - |
| 1777646889 | 27.78° C | 63% | 1013.9 hPa | 0 mm | - | 353 W/m² | - |
| 1777646584 | 28.33° C | 65% | 1014 hPa | 0 mm | - | 96 W/m² | - |
| 1777646281 | 27.22° C | 66% | 1013.8 hPa | 0 mm | - | 101 W/m² | - |
| 1777645978 | 27.22° C | 70% | 1013.9 hPa | 0 mm | - | 222 W/m² | - |
| 1777645675 | 27.78° C | 70% | 1014.1 hPa | 0 mm | - | 113 W/m² | - |
| 1777645370 | 27.78° C | 70% | 1014.1 hPa | 0 mm | - | 318 W/m² | - |
| 1777645066 | 27.78° C | 70% | 1014 hPa | 0 mm | - | 387 W/m² | - |
| 1777644763 | 26.11° C | 76% | 1014.2 hPa | 0 mm | - | 411 W/m² | - |
| 1777644461 | 25.56° C | 76% | 1014.2 hPa | 0 mm | - | 534 W/m² | - |
| 1777644157 | 26.11° C | 76% | 1013.9 hPa | 0 mm | - | 83 W/m² | - |
| 1777643853 | 26.11° C | 76% | 1014 hPa | 0 mm | - | 125 W/m² | - |
| 1777643551 | 26.11° C | 76% | 1013.8 hPa | 0 mm | - | 289 W/m² | - |
| 1777643247 | 26.11° C | 76% | 1013.7 hPa | 0 mm | - | 92 W/m² | - |
| 1777642944 | 25.56° C | 80% | 1013.7 hPa | 0 mm | - | 499 W/m² | - |
| 1777642641 | 25° C | 81% | 1013.6 hPa | 0 mm | - | 475 W/m² | - |
| 1777642338 | 25° C | 83% | 1013.9 hPa | 0 mm | - | 176 W/m² | - |
| 1777642034 | 25° C | 83% | 1013.8 hPa | 0 mm | - | 397 W/m² | - |
| 1777641730 | 25° C | 84% | 1013.7 hPa | 0 mm | - | 392 W/m² | - |
| 1777641425 | 25° C | 85% | 1013.7 hPa | 0 mm | - | 327 W/m² | - |
| 1777641121 | 24.44° C | 86% | 1013.8 hPa | 0 mm | - | 285 W/m² | - |
| 1777640817 | 24.44° C | 87% | 1013.8 hPa | 0 mm | - | 125 W/m² | - |
| 1777640514 | 24.44° C | 87% | 1013.7 hPa | 0 mm | - | 52 W/m² | - |
| 1777640211 | 23.89° C | 89% | 1013.6 hPa | 0 mm | - | 50 W/m² | - |
| 1777639907 | 23.33° C | 90% | 1013.6 hPa | 0 mm | - | 49 W/m² | - |
* Rain latest hour (hover to see other rain measurements)
** Current wind speed in m/s (hover to see current wind gust speed)